x

9439040 - Astoria, Or (asto3) Weather Station

2:30 - Fri 26th Aug 2016 All times are PDT. -7 hours from GMT.

  • Wind
    1mph, 2mph gusts
  • Sea Temp 69°f
  • Air Temp 67°f
  • Sea Pressure 1013.4mb
  • 9439040 - Astoria, Or
  • 9439040 - Astoria, Or

More Historic Weather Station data

Upgrade to MSW Pro to gain access to the past 30 days of data for over 8000 Wavebouys and Weather Stations around the globe.

Join Pro

Comparision Forecast

View Surf forecast
   
ven. 08/26 2:30 1 2 mph 1013.4mb 69f 67f
2:24 1 2 mph 1013.5mb 69f 67f
2:18  -  2 mph 1013.6mb 69f 67f
2:12 2 3 mph 1013.6mb 69f 67f
2:06 2 3 mph 1013.7mb 69f 68f
2:00 2 5 mph 1013.8mb 69f 67f
1:54 3 5 mph 1013.7mb 69f 68f
1:48 5 6 mph 1013.7mb 69f 68f
1:42 5 6 mph 1013.8mb 69f 68f
1:36 5 6 mph 1013.8mb 69f 68f
1:30 6
mph
1013.8mb 69f 68f
1:24 3 5 mph 1013.7mb 69f 69f
1:18 1 5 mph 1013.8mb 69f 68f
1:12 2 5 mph 1013.8mb 69f 69f
1:06 1 3 mph 1013.8mb 69f 69f
1:00 1 3 mph 1013.7mb 69f 69f
12:54 1 2 mph 1013.8mb 69f 69f
12:48 1
mph
1013.8mb 69f 69f
12:42  -  1 mph 1013.8mb 69f 69f
12:36  -  1 mph 1013.8mb 69f 69f
12:30  -  1 mph 1013.8mb 69f 69f
12:24 1 3 mph 1013.8mb 69f 69f
12:18 2 3 mph 1013.8mb 69f 70f
12:12 2
mph
1013.9mb 69f 70f
12:06  -  2 mph 1013.9mb 69f 71f
12:00 1 3 mph 1013.9mb 69f 72f
jeu. 08/25 11:54 2 5 mph 1013.9mb 69f 72f
11:48 2 5 mph 1014mb 69f -
11:42 3 7 mph 1014mb 69f -
11:36 2 5 mph 1014.1mb 69f -
11:30  -  2 mph 1014.2mb 69f 74f
11:24 1 2 mph 1014.2mb 69f 74f
11:18 1 7 mph 1014.2mb 69f 76f
11:12 6 7 mph 1014.2mb 69f 78f
11:06 3 6 mph 1014.2mb 69f 77f
11:00 3 7 mph 1014.3mb 69f 78f
10:54 5 10 mph 1014.4mb 69f 78f
10:48 6 9 mph 1014.4mb 69f -
10:42 5 8 mph 1014.4mb 69f -
10:36 8 10 mph 1014.4mb 69f -
10:30 5 9 mph 1014.4mb 69f 78f
10:24 5 8 mph 1014.4mb 69f 77f
10:18 6 8 mph 1014.4mb 70f 78f
10:12 5 8 mph 1014.4mb 70f 78f
10:06 3 6 mph 1014.4mb 70f 78f
10:00 6 7 mph 1014.4mb 70f 78f
9:54 3 5 mph 1014.5mb 70f 77f
9:48 1 5 mph 1014.6mb 70f 76f
9:42 3 5 mph 1014.5mb 70f 76f
9:36 5 11 mph 1014.5mb 70f 78f
9:30 8 13 mph 1014.4mb 70f 77f
9:24 9 13 mph 1014.3mb 70f 77f
9:18 10 15 mph 1014.3mb 70f 77f
9:12 10 14 mph 1014.2mb 70f 77f
9:06 9 16 mph 1014.2mb 70f 78f
9:00 8 13 mph 1014.2mb 69f 78f
8:54 11 16 mph 1014.2mb 69f 78f
8:48 13 15 mph 1014.1mb 69f 78f
8:42 11 17 mph 1014.1mb 69f 77f
8:36 14 20 mph 1014.1mb 69f 78f
8:30 14 20 mph 1014.1mb 69f 79f
8:24 14 21 mph 1014.1mb 69f 79f
8:18 15 20 mph 1014mb 69f 79f
8:12 11 20 mph 1013.9mb 69f 80f
8:06 13 18 mph 1013.9mb 69f 79f
8:00 14 17 mph 1013.9mb 69f 79f
7:54 10 13 mph 1013.9mb 69f 79f
7:48 6 11 mph 1013.9mb 69f 79f
7:42 6 13 mph 1013.9mb 69f 79f
7:36 9 14 mph 1013.9mb 70f 79f
7:30 9 11 mph 1013.8mb 71f 80f
7:24 9 13 mph 1013.8mb 71f 79f
7:18  -  mph 1013.7mb 72f 80f
7:12  -  mph 1013.7mb 72f 80f
7:06  -  mph 1013.6mb 73f 79f
7:00  -  mph 1013.6mb 73f 79f
6:54  -  mph 1013.6mb 73f 80f
6:48  -  mph 1013.6mb 72f 80f
6:42  -  mph 1013.6mb 71f 79f
6:36  -  mph 1013.6mb 71f 79f
6:30 14 16 mph 1013.7mb 71f 79f
6:24 14 16 mph 1013.7mb 71f 80f
6:18  -  mph 1013.8mb - 80f
6:12  -  mph 1014mb - 79f
6:06  -  mph 1014mb - 80f
6:00 15 17 mph 1013.9mb 72f 80f
5:54 14 17 mph 1014mb 73f 80f
5:48  -  mph 1014mb 73f 80f
5:42  -  mph 1014.1mb 73f 80f
5:36  -  mph 1014.2mb 73f 81f
5:30 5 8 mph 1014.3mb 73f 82f
5:24 5 8 mph 1014.3mb 73f 80f
5:18  -  mph 1014.4mb 73f 80f
5:12  -  mph 1014.5mb 73f 81f
5:06  -  mph 1014.5mb 73f 81f
5:00  -  mph 1014.5mb 73f 80f
4:54  -  mph 1014.6mb 73f 79f
4:48  -  2 mph 1014.6mb 73f -
4:42 2 6 mph 1014.6mb 73f -
4:36 6 11 mph 1014.7mb 72f -
4:30 8 10 mph 1014.8mb 72f 79f
4:24 9 13 mph 1014.8mb 72f 79f
4:18  -  mph 1014.8mb 72f 79f
4:12  -  mph 1014.9mb 72f 79f
4:06  -  mph 1015mb 72f 78f
4:00  -  mph 1015mb 72f 79f
3:54  -  mph 1015.2mb 71f 79f
3:48  -  mph - 71f -
3:42  -  mph - 71f -
3:36  -  mph - 71f -
3:30  -  3 mph 1015.4mb 71f 81f
3:24  -  3 mph 1015.5mb 71f 81f
3:18  -  mph 1015.5mb 71f 80f
3:12  -  mph 1015.6mb 71f 82f
3:06  -  mph 1015.7mb 71f 82f
3:00  -  2 mph 1015.7mb 71f 82f
2:54 1 5 mph 1015.8mb 71f 82f
2:48 2 3 mph 1015.8mb 70f 80f
2:42 2 3 mph 1015.9mb 70f 80f
2:36  -  2 mph 1016mb 70f 80f
2:30 2
mph
1016.1mb 70f 79f
2:24 2 3 mph 1016.1mb 70f 80f
2:18  -  2 mph 1016.2mb 70f 82f
2:12  -  1 mph 1016.2mb 70f 82f
2:06  -  2 mph 1016.3mb 69f 80f
2:00  -  2 mph 1016.4mb 71f 80f
1:54 1 3 mph 1016.5mb 71f 79f
1:48 1 3 mph 1016.5mb 71f 79f
1:42  -  3 mph 1016.6mb 71f 80f
1:36 1 3 mph 1016.6mb 71f 79f
1:30 2 3 mph 1016.7mb 71f 78f
1:24 3 5 mph 1016.8mb 71f 77f
1:18 2
mph
1016.8mb 71f 77f
1:12  -  2 mph 1016.9mb 70f 76f
1:06  -  2 mph 1017mb 70f 75f
1:00 1 2 mph 1017mb 69f 74f
12:54 1 3 mph 1017.1mb 70f 74f
12:48 3 6 mph 1017.1mb 70f 75f
12:42 3 5 mph 1017.2mb 70f 81f
12:36 3 6 mph 1017.1mb 70f 83f
12:30 1 2 mph 1017.1mb 70f 83f
12:24 2
mph
1017.3mb 69f 82f
12:18 2
mph
1017.3mb 69f 80f
12:12 2 3 mph 1017.4mb 69f 79f
12:06 2
mph
1017.4mb 69f 80f
12:00  -  2 mph 1017.5mb 69f 81f
11:54  -  2 mph 1017.6mb 69f 78f
11:48 2
mph
1017.6mb 69f 77f
11:42 2
mph
1017.7mb 69f 76f
11:36 1 2 mph 1017.8mb 69f 76f
11:30 1 3 mph 1017.8mb 69f 77f
11:24  -  2 mph 1017.9mb 69f 78f
11:18  -  1 mph 1018mb 69f 77f
11:12  -  2 mph 1018.1mb 69f 76f
11:06 1 2 mph 1018.1mb 69f 74f
11:00 1 2 mph 1018.2mb 69f 74f
10:54  -  1 mph 1018.2mb 69f 74f
10:48  -  2 mph 1018.3mb 69f 73f
10:42 2 3 mph 1018.4mb 69f 73f
10:36 2 3 mph 1018.4mb 69f 73f
10:30  -  5 mph 1018.4mb 69f 74f
10:24 5 6 mph 1018.4mb 69f 73f
10:18 2
mph
1018.4mb 69f 73f
10:12 1 3 mph 1018.5mb 68f 73f
10:06 1 3 mph 1018.5mb 69f 74f
10:00  -  1 mph 1018.5mb 70f 73f
9:54  -  5 mph 1018.5mb 70f 72f
9:48  -  2 mph 1018.5mb 69f 72f
9:42 1 6 mph 1018.6mb 69f 71f
9:36 2 6 mph 1018.6mb 69f 71f
9:30 6 7 mph 1018.6mb 69f 70f
9:24 6 9 mph 1018.7mb 69f 70f
9:18 8 9 mph 1018.7mb 69f 69f
9:12 6 9 mph 1018.8mb 69f 69f
9:06 7 10 mph 1018.8mb 70f 69f
9:00 7 8 mph 1018.8mb 70f 68f
8:54 7 8 mph 1018.9mb 70f 68f
8:48 7 10 mph 1018.9mb 70f 68f
8:42 6 8 mph 1018.9mb 70f 67f
8:36 6 7 mph 1018.9mb 70f 66f
8:30 3 6 mph 1018.9mb 70f 67f
8:24 5 7 mph 1018.8mb 70f 66f
8:18 5 7 mph 1018.8mb 70f 66f
8:12 5 8 mph 1018.8mb 70f 66f
8:06 6 9 mph 1018.8mb 70f 65f
8:00 8 9 mph 1018.8mb 70f 65f
7:54 8 9 mph 1018.9mb 70f 65f
7:48 8 10 mph 1018.9mb 70f 65f
7:42 8 10 mph 1019mb 70f 65f
7:36 7 8 mph 1019mb 70f 65f
7:30 8 9 mph 1019mb 71f 64f
7:24 6 9 mph 1019mb 71f 64f
7:18 8 9 mph 1018.9mb 71f 64f
7:12 7 9 mph 1018.8mb 71f 64f
7:06 7 8 mph 1018.7mb 71f 64f
7:00 6 8 mph 1018.6mb 71f 64f
6:54 6 7 mph 1018.5mb 71f 64f
6:48 5 6 mph 1018.5mb 71f 64f
6:42 5 6 mph 1018.4mb 71f 64f
6:36 5 6 mph 1018.4mb 71f 64f
6:30 5 7 mph 1018.4mb 71f 64f
6:24 6
mph
1018.5mb 71f 64f
6:18 5 6 mph 1018.5mb 71f 64f
6:12 3 6 mph 1018.5mb 71f 64f
6:06 5 6 mph 1018.6mb 71f 64f
6:00 5 6 mph 1018.6mb 71f 64f
5:54 7 9 mph 1018.6mb 71f 64f
5:48 6 8 mph 1018.6mb 70f 64f
5:42 7 8 mph 1018.6mb 70f 64f
5:36 7 8 mph 1018.6mb 70f 64f
5:30 7 9 mph 1018.6mb 70f 64f
5:24 7 9 mph 1018.7mb 70f 65f
5:18 8 10 mph 1018.6mb 70f 65f
5:12 7 9 mph 1018.7mb 70f 65f
5:06 6 8 mph 1018.6mb 70f 65f
5:00 6 8 mph 1018.6mb 70f 65f
4:54 7 8 mph 1018.7mb 70f 65f
4:48 5 7 mph 1018.7mb 70f 64f
4:42 6 7 mph 1018.7mb 70f 64f
4:36 6 7 mph 1018.7mb 70f 64f
4:30 7 8 mph 1018.7mb 70f 64f
4:24 7 8 mph 1018.8mb 70f 64f
4:18 8 9 mph 1018.8mb 70f 64f
4:12 7 9 mph 1018.8mb 70f 64f
4:06 8 9 mph 1018.8mb 70f 65f
4:00 6 8 mph 1018.8mb 70f 65f
3:54 6 8 mph 1018.8mb 70f 65f
3:48 6 8 mph 1018.8mb 70f 65f
3:42 6 8 mph 1018.8mb 70f 65f
3:36 3 6 mph 1018.9mb 70f 65f
3:30 5 7 mph 1018.8mb 70f 65f
3:24 3 8 mph 1018.8mb 70f 65f
3:18 5 6 mph 1018.8mb 70f 66f
3:12 3 6 mph 1018.9mb 70f 65f
3:06 5 6 mph 1018.9mb 70f 65f
3:00 5 6 mph 1018.8mb 70f 65f
2:54 5 6 mph 1018.8mb 70f 65f
2:48 3 7 mph 1018.8mb 70f 65f
2:42 5 7 mph 1018.9mb 69f 65f
2:36 6 7 mph 1018.8mb 69f 65f
2:30 6 8 mph 1018.7mb 69f 65f
2:24 7 9 mph 1018.8mb 69f 66f
2:18 8 10 mph 1018.8mb 69f 67f
2:12 9 11 mph 1018.8mb 69f 66f
2:06 6 7 mph 1018.7mb 69f 67f
2:00 5 7 mph 1018.7mb 69f 67f
1:54 5 6 mph 1018.8mb 69f 66f
1:48 3 5 mph 1018.7mb 68f 66f
1:42 2 5 mph 1018.7mb 69f 66f
1:36 2 3 mph 1018.7mb 69f 67f
1:30 2 3 mph 1018.7mb 69f 68f
1:24 3 6 mph 1018.7mb 69f 69f
1:18 6 8 mph 1018.8mb 69f 70f
1:12 2 3 mph 1018.8mb 69f 68f
1:06 2 3 mph 1018.8mb 69f 69f
1:00 1 5 mph 1018.8mb 69f 69f
12:54 2 3 mph 1018.8mb 69f 69f
12:48 1 3 mph 1018.8mb 69f 68f
12:42 2 3 mph 1018.8mb 69f 68f
12:36 1 5 mph 1018.9mb 69f 69f
12:30 3 6 mph 1019mb 69f 69f
12:24 5 7 mph 1019mb 69f 69f
12:18 6 7 mph 1019.1mb 69f 68f
12:12 2 5 mph 1019.1mb 69f 68f
12:06  -  7 mph 1019.1mb 69f 68f
12:00 2
mph
1019.1mb 69f 67f
mer. 08/24 11:54 2 3 mph 1019.1mb 68f 67f
11:48 2 3 mph 1019.1mb 68f -
11:42 3 5 mph 1019.1mb 68f -
11:36 2 3 mph 1019.1mb 69f -
11:30 1 6 mph 1019.1mb 69f 69f
11:24 5 6 mph 1019.2mb 69f 69f
11:18  -  1 mph 1019.2mb 69f 68f
11:12 1 6 mph 1019.3mb 69f 69f
11:06 5 6 mph 1019.3mb 69f 70f
11:00 2 7 mph 1019.3mb 69f 71f
10:54 1 3 mph 1019.3mb 68f 71f
10:48 2 7 mph 1019.4mb 68f 71f
10:42 2 8 mph 1019.4mb 68f 73f
10:36 2 6 mph 1019.5mb 68f 73f
10:30 2 5 mph 1019.5mb 68f 72f
10:24 3 6 mph 1019.5mb 68f 72f
10:18 6 10 mph 1019.6mb 68f 72f
10:12 8 10 mph 1019.6mb 68f 74f
10:06 6 10 mph 1019.7mb 68f 73f
10:00 6 11 mph 1019.7mb 68f 74f
9:54 7 10 mph 1019.7mb 68f 73f
9:48 7 13 mph 1019.7mb 68f 73f
9:42 8 13 mph 1019.7mb 68f 73f
9:36 9 14 mph 1019.7mb 69f 73f
9:30 10 13 mph 1019.8mb 69f 73f
9:24 8 13 mph 1019.7mb 69f 73f
9:18 8 11 mph 1019.7mb 69f 73f
9:12 8 11 mph 1019.7mb 70f 73f
9:06 8 15 mph 1019.7mb 70f 74f
9:00 10 14 mph 1019.7mb 70f 75f
8:54 6 13 mph 1019.7mb 70f 74f
8:48 9 14 mph 1019.6mb 70f 74f
8:42 13 16 mph 1019.4mb 69f 73f
8:36 14 16 mph 1019.3mb 69f 74f
8:30 14 16 mph 1019.3mb 69f 74f
8:24 14 17 mph 1019.2mb 70f 74f
8:18 15 18 mph 1019.1mb 70f 74f
8:12 16 18 mph 1019.1mb 70f 74f
8:06 16 18 mph 1019.1mb 70f 74f
8:00 16 20 mph 1019.1mb 70f 74f
7:54 16 21 mph 1019.1mb 70f 74f
7:48 16 20 mph 1019.2mb 69f 74f
7:42 14 16 mph 1019.2mb 69f 75f
7:36 15 18 mph 1019.2mb 69f 75f
7:30 15 20 mph 1019.2mb 69f 75f
7:24 17 21 mph 1019.1mb 70f 76f
7:18  -  mph 1019.1mb 70f 76f
7:12  -  mph 1019.1mb 69f 77f
7:06  -  mph 1019mb 69f 77f
7:00  -  mph 1019mb 69f 77f
6:54  -  mph 1019mb 69f 78f
6:48  -  mph - 69f 77f
6:42  -  mph - 69f 77f
6:36  -  mph - 69f 77f
6:30 14 15 mph - 69f 77f
6:24 14 15 mph - 69f 78f
6:18  -  mph 1019.1mb 70f 77f
6:12  -  mph 1019.1mb 71f 77f
6:06  -  mph 1019.1mb 71f 78f
6:00 10 11 mph 1019.2mb 71f 78f
5:54 2 7 mph 1019.2mb 71f 79f
5:48 5 6 mph - 71f 78f
5:42 5 8 mph - 71f 78f
5:36 7 8 mph - 71f 76f
5:30 7 8 mph 1019.2mb 71f 76f
5:24 7 8 mph 1019.2mb 71f 77f
5:18  -  mph - 71f 78f
5:12  -  mph - 71f 76f
5:06  -  mph - 71f 79f
5:00 1 6 mph 1019.3mb 71f 78f
4:54 2 5 mph 1019.4mb 71f 77f
4:48  -  mph 1019.4mb 71f -
4:42  -  mph 1019.5mb 71f -
4:36  -  mph 1019.5mb 71f -
4:30 7 8 mph 1019.5mb 72f 75f
4:24 7 9 mph 1019.6mb 72f 75f
4:18  -  mph 1019.7mb 72f 75f
4:12  -  mph 1019.7mb 72f 75f
4:06  -  mph 1019.7mb 72f 75f
4:00  -  mph 1019.8mb 72f 75f
3:54  -  mph 1019.8mb 72f 75f
3:48  -  mph - 72f -
3:42  -  mph - 72f -
3:36  -  mph - 72f -
3:30 8 10 mph 1019.9mb 72f 74f
3:24 8 10 mph 1020mb 72f 74f
3:18  -  mph 1020.1mb 71f 74f
3:12  -  mph 1020.2mb 71f 74f
3:06  -  mph 1020.3mb 72f 74f
3:00 6
mph
1020.4mb 72f 74f
2:54 5 6 mph 1020.4mb 71f 73f
2:48  -  mph - 71f 73f
2:42  -  mph - 71f 73f
2:36  -  mph - 71f 73f
2:30 3
mph
1020.6mb 71f 73f
2:24 3 5 mph 1020.6mb 71f 73f
2:18 5 6 mph 1020.7mb 71f 73f
2:12 5 6 mph 1020.7mb 71f 73f
2:06 5
mph
1020.8mb 71f 73f
2:00 3
mph
1020.8mb 71f 73f
1:54 2 3 mph 1020.9mb 71f 73f
1:48 2 5 mph 1020.9mb 71f 73f
1:42 5
mph
1021mb 71f 73f
1:36 3 5 mph 1021mb 71f 73f
1:30 3 6 mph 1021.1mb 70f 73f
1:24 2 5 mph 1021.1mb 70f 75f
1:18 6 9 mph 1021.2mb 70f 73f
1:12 1 3 mph 1021.2mb 70f 78f
1:06 2
mph
1021.2mb 70f 76f
1:00  -  2 mph 1021.3mb 70f 75f
12:54 2 3 mph 1021.3mb 70f 73f
12:48 3
mph
1021.4mb 70f 71f
12:42 2 3 mph 1021.4mb 70f 72f
12:36 2 3 mph 1021.5mb 70f 71f
12:30 3 5 mph 1021.5mb 70f 70f
12:24 3 5 mph 1021.6mb 70f 70f
12:18 3 5 mph 1021.7mb 70f 70f
12:12 3 5 mph 1021.7mb 70f 69f
12:06 5 6 mph 1021.8mb 70f 69f
12:00 5 6 mph 1021.8mb 70f 68f
11:54 6 7 mph 1022mb 70f 68f
11:48 5 8 mph 1022mb 70f 68f
11:42 7
mph
1022mb 70f 67f
11:36 3 5 mph 1021.9mb 69f 68f
11:30 2 3 mph 1022mb 69f 69f
11:24 2 5 mph 1022.1mb 69f 68f
11:18 3 5 mph 1022.1mb 70f 67f
11:12 1 3 mph 1022.2mb 69f 68f
11:06  -  2 mph 1022.3mb 69f 69f
11:00 1 3 mph 1022.3mb 69f 68f
10:54 1 5 mph 1022.4mb 69f 68f
10:48 5 6 mph 1022.4mb 69f 67f
10:42 1 6 mph 1022.4mb 69f 68f
10:36 5 6 mph 1022.5mb 69f 67f
10:30 1 2 mph 1022.6mb 69f 67f
10:24 1 2 mph 1022.6mb 69f 67f
10:18  -  2 mph 1022.6mb 68f 67f
10:12 2 5 mph 1022.6mb 69f 66f
10:06 3 5 mph 1022.6mb 69f 65f
10:00 5
mph
1022.5mb 69f 64f
9:54 3
mph
1022.5mb 69f 64f
9:48 3 5 mph 1022.5mb 69f 65f
9:42 5 6 mph 1022.5mb 69f 64f
9:36 2 6 mph 1022.4mb 69f 64f
9:30 5 6 mph 1022.4mb 69f 64f
9:24 1 2 mph 1022.4mb 69f 64f
9:18 2 3 mph 1022.4mb 69f 64f
9:12  -  1 mph 1022.4mb 69f 64f
9:06  -  2 mph 1022.4mb 69f 63f
9:00 1 2 mph 1022.4mb 69f 62f
8:54  -  2 mph 1022.4mb 69f 62f
8:48 1 3 mph 1022.4mb 69f 61f
8:42 2 5 mph 1022.4mb 69f 61f
8:36 1 2 mph 1022.5mb 69f 61f
8:30 1 2 mph 1022.5mb 69f 60f
8:24 3 5 mph 1022.4mb 69f 60f
8:18 1 3 mph 1022.3mb 70f 60f
8:12 2 6 mph 1022.3mb 69f 59f
8:06 5 6 mph 1022.4mb 69f 59f
8:00 2 5 mph 1022.4mb 69f 59f
7:54 3 5 mph 1022.3mb 69f 59f
7:48 3 5 mph 1022.4mb 69f 59f
7:42 3 6 mph 1022.4mb 70f 59f
7:36 3 5 mph 1022.5mb 70f 59f
7:30 3 5 mph 1022.4mb 69f 59f
7:24 3 5 mph 1022.4mb 69f 59f
7:18 2 5 mph 1022.4mb 69f 59f
7:12 1 3 mph 1022.3mb 69f 59f
7:06 2 3 mph 1022.3mb 69f 59f
7:00  -  3 mph 1022.3mb 69f 59f
6:54 1 3 mph 1022.3mb 69f 59f
6:48 2
mph
1022.3mb 69f 59f
6:42 1 2 mph 1022.3mb 69f 59f
6:36 1 3 mph 1022.2mb 69f 59f
6:30 2 3 mph 1022.2mb 70f 59f
6:24 2 3 mph 1022.2mb 70f 60f
6:18 2 5 mph 1022.2mb 70f 60f
6:12 3
mph
1022.1mb 70f 60f
6:06 1 3 mph 1022.2mb 70f 59f
6:00  -  3 mph 1022.2mb 70f 59f
5:54  -  2 mph 1022.1mb 70f 60f
5:48  -  3 mph 1022.1mb 70f 60f
5:42 1 6 mph 1022mb 70f 61f
5:36 5
mph
1022mb 70f 61f
5:30 2 5 mph 1022mb 70f 60f
5:24  -  1 mph 1021.9mb 70f 59f
5:18 1 3 mph 1022mb 70f 59f
5:12 1 2 mph 1021.9mb 70f 59f
5:06 1 2 mph 1021.9mb 70f 59f
5:00 1 2 mph 1021.9mb 70f 59f
4:54 2
mph
1021.9mb 70f 59f
4:48 1 2 mph 1021.9mb 70f 59f
4:42 2
mph
1021.9mb 70f 60f
4:36 1 2 mph 1021.9mb 70f 60f
4:30 1 2 mph 1021.9mb 70f 60f
4:24  -  3 mph 1021.9mb 70f 59f
4:18 2
mph
1021.9mb 70f 60f
4:12 1 2 mph 1021.9mb 70f 60f
4:06 2 3 mph 1021.9mb 70f 60f
4:00 3 5 mph 1021.9mb 70f 61f
3:54 2 6 mph 1021.9mb 70f 61f
3:48 3 6 mph 1021.9mb 70f 61f
3:42 3 6 mph 1021.8mb 70f 61f
3:36 2 3 mph 1021.8mb 70f 61f
3:30 2 5 mph 1021.8mb 70f 61f
3:24 3 5 mph 1021.8mb 70f 61f
3:18 3 5 mph 1021.8mb 70f 61f
3:12 2 5 mph 1021.8mb 70f 61f
3:06  -  1 mph 1021.8mb 70f 60f
3:00  -  1 mph 1021.9mb 70f 60f
2:54  -  1 mph 1021.9mb 70f 60f
2:48  -  2 mph 1021.9mb 70f 60f
2:42  -  2 mph 1021.8mb 70f 60f
2:36 1 2 mph 1021.8mb 70f 60f
2:30 2
mph
1021.8mb 70f 60f
2:24 1 2 mph 1021.8mb 70f 60f
2:18 1 2 mph 1021.8mb 70f 61f
2:12 2
mph
1021.8mb 70f 61f
2:06 2 3 mph 1021.9mb 70f 61f
2:00 2 3 mph 1021.9mb 69f 61f
1:54 2
mph
1021.9mb 69f 61f
1:48 2
mph
1021.9mb 69f 60f
1:42 2 3 mph 1022mb 69f 60f
1:36 2 5 mph 1022mb 69f 60f
1:30 3 6 mph 1022.1mb 69f 61f
1:24 5 6 mph 1022mb 69f 60f
1:18 3 5 mph 1022.1mb 69f 61f
1:12 2 5 mph 1022.2mb 68f 61f
1:06 2 5 mph 1022.1mb 68f 61f
1:00 3 5 mph 1022.2mb 68f 61f
12:54 1 3 mph 1022.2mb 68f 61f
12:48 2 3 mph 1022.2mb 68f 61f
12:42 2 6 mph 1022.2mb 68f 61f
12:36 6
mph
1022.3mb 68f 61f
12:30 1 5 mph 1022.2mb 68f 61f
12:24 2 3 mph 1022.3mb 68f 60f
12:18 3 6 mph 1022.3mb 68f 60f
12:12 3 6 mph 1022.2mb 68f 60f
12:06 1 2 mph 1022.2mb 68f 62f
12:00 1 2 mph 1022.2mb 68f 62f
mar. 08/23 11:54 1 2 mph 1022.2mb 68f 62f
11:48  -  1 mph 1022.2mb 68f -
11:42  -  1 mph 1022.3mb 68f -
11:36  -  2 mph 1022.3mb 68f -
11:30 1 2 mph 1022.3mb 68f 61f
11:24 1 2 mph 1022.4mb 68f 61f
11:18  -  2 mph 1022.5mb 68f 61f
11:12 2 3 mph 1022.5mb 68f 61f
11:06 1 2 mph 1022.5mb 68f 62f
11:00 3 6 mph 1022.5mb 68f 62f
10:54 3 5 mph 1022.4mb 68f 62f
10:48 1 3 mph 1022.4mb 68f 62f
10:42 2 3 mph 1022.4mb 68f 62f
10:36 2
mph
1022.3mb 68f 62f
10:30 2 3 mph 1022.4mb 68f 62f
10:24 2 3 mph 1022.3mb 68f 62f
10:18 2
mph
1022.3mb 68f 63f
10:12 1 3 mph 1022.3mb 68f 64f
10:06 2
mph
1022.3mb 68f 64f
10:00 1 2 mph 1022.3mb 68f 64f
9:54  -  2 mph 1022.3mb 68f 64f
9:48  -  2 mph 1022.3mb 68f 64f
9:42 2 3 mph 1022.3mb 68f 65f
9:36 3 8 mph 1022.3mb 68f 66f
9:30 7 9 mph 1022.3mb 68f 67f
9:24 5 8 mph 1022.2mb 68f 67f
9:18 8 11 mph 1022.2mb 68f 67f
9:12 9 10 mph 1022.2mb 68f 68f
9:06 3 6 mph 1022.2mb 68f 66f
9:00 2 3 mph 1022.2mb 68f 65f
8:54 3 6 mph 1022.1mb 68f 65f
8:48 5 7 mph 1022mb 68f 68f
8:42 2 5 mph 1021.9mb 68f 66f
8:36 3 6 mph 1021.8mb 68f 66f
8:30 5 6 mph 1021.8mb 68f 67f
8:24 3 5 mph 1021.7mb 68f 67f
8:18 5 6 mph 1021.7mb 69f 67f
8:12 5 6 mph 1021.7mb 69f 68f
8:06 2
mph
1021.6mb 69f 69f
8:00 2
mph
1021.6mb 69f 69f
7:54  -  3 mph 1021.6mb 68f 70f
7:48 3 7 mph 1021.6mb 67f 70f
7:42 2 8 mph 1021.6mb 67f 70f
7:36 7 8 mph 1021.5mb 67f 70f
7:30 5 7 mph 1021.4mb 67f 70f
7:24 6 7 mph 1021.4mb 68f 70f
7:18 3 7 mph 1021.4mb 69f 71f
7:12 3 6 mph 1021.3mb 69f 71f
7:06 5 8 mph 1021.3mb 68f 71f
7:00 7 10 mph 1021.3mb 68f 70f
6:54 7 9 mph 1021.3mb 68f 70f
6:48 5 10 mph 1021.2mb 68f 71f
6:42 8 11 mph 1021.2mb 68f 70f
6:36 8 10 mph 1021.2mb 68f 71f
6:30 9 13 mph 1021.3mb 68f 70f
6:24 6 7 mph 1021.2mb 68f 71f
6:18  -  mph 1021.2mb 68f 72f
6:12  -  mph 1021.2mb 69f 72f
6:06  -  mph 1021.2mb 69f 71f
6:00  -  mph 1021.2mb 69f 72f
5:54  -  mph 1021.2mb 69f 72f
5:48 3 6 mph 1021.2mb 69f 72f
5:42 6 8 mph 1021.2mb 69f 71f
5:36 6 9 mph 1021.2mb 69f 71f
5:30  -  mph 1021.2mb 69f 72f
5:24  -  mph 1021.2mb 69f 72f
5:18  -  mph 1021.2mb 70f 71f
5:12  -  mph 1021.2mb 70f 71f
5:06  -  mph 1021.2mb 70f 70f
5:00 5 6 mph 1021.3mb 70f 71f
4:54 5 7 mph 1021.3mb 70f 71f
4:48 6 8 mph - 69f -
4:42 6 8 mph - 70f -
4:36 7 9 mph - 70f -
4:30 8 11 mph 1021.2mb 70f 71f
4:24 8 10 mph 1021.2mb 71f 71f
4:18  -  mph 1021.2mb 71f 72f
4:12  -  mph 1021.2mb 71f 72f
4:06  -  mph 1021.3mb 71f 72f
4:00 6 11 mph 1021.3mb 71f 72f
3:54 10 13 mph 1021.3mb 71f 71f
3:48  -  mph - 71f 71f
3:42  -  mph - 70f 71f
3:36  -  mph - 71f 71f
3:30 10 14 mph 1021.2mb 71f 71f
3:24 10 11 mph 1021.2mb 71f 71f
3:18 10 13 mph 1021.2mb 71f 72f
3:12 13 14 mph 1021.2mb 71f 71f
3:06 6 9 mph 1021.2mb 71f 73f
3:00  -  mph 1021.3mb 70f 73f
2:54  -  mph 1021.3mb 70f 72f
2:48 7 9 mph - 70f 72f
2:42 6 7 mph - 71f 71f
2:36 7 11 mph - 71f 71f
2:30 10 11 mph 1021.4mb 70f 69f
2:24 10 14 mph 1021.5mb 70f 69f
2:18 13 14 mph 1021.5mb 70f 68f
2:12 13 14 mph 1021.5mb 70f 67f
2:06 13 14 mph 1021.6mb 70f 68f
2:00 13 14 mph 1021.6mb 70f 67f
1:54 13 14 mph 1021.7mb 70f 67f
1:48 13 14 mph 1021.7mb 70f 66f
1:42 10 14 mph 1021.7mb 70f 66f
1:36 10 13 mph 1021.7mb 70f 66f
1:30 11 15 mph 1021.7mb 70f 65f
1:24 13 14 mph 1021.7mb 70f 65f
1:18 11 14 mph 1021.7mb 70f 66f
1:12 10
mph
1021.8mb 70f 67f
1:06 7 9 mph 1021.8mb 70f 67f
1:00 8 9 mph 1021.8mb 70f 66f
12:54 5 6 mph 1021.9mb 70f 66f
12:48 3 6 mph 1021.9mb 70f 65f
12:42 5 6 mph 1021.9mb 70f 65f
12:36 5 6 mph 1022mb 70f 64f
12:30 3 5 mph 1022mb 70f 64f
12:24 2 3 mph 1022mb 70f 63f
12:18 2 3 mph 1022mb 70f 63f
12:12 3 5 mph 1022mb 70f 63f
12:06 2 5 mph 1022.1mb 69f 62f
12:00 2 5 mph 1022.1mb 69f 62f
11:54 3 5 mph 1022.1mb 69f 61f
11:48 2 5 mph 1022.2mb 69f 62f
11:42 3 5 mph 1022.2mb 69f 61f
11:36 2 5 mph 1022.2mb 69f 61f
11:30 2 3 mph 1022.2mb 69f 61f
11:24 2 3 mph 1022.2mb 69f 61f
11:18 2 3 mph 1022.1mb 69f 61f
11:12 2 3 mph 1022.1mb 68f 61f
11:06 1 2 mph 1022.1mb 68f 62f
11:00  -  1 mph 1022.2mb 68f 62f
10:54 1 3 mph 1022.2mb 68f 60f
10:48 2 5 mph 1022.2mb 68f 61f
10:42  -  2 mph 1022.3mb 68f 61f
10:36 2 6 mph 1022.3mb 68f 59f
10:30 5 7 mph 1022.3mb 68f 58f
10:24 5 6 mph 1022.3mb 68f 58f
10:18 5 6 mph 1022.2mb 68f 58f
10:12 2 5 mph 1022.3mb 68f 58f
10:06 2 5 mph 1022.3mb 68f 57f
10:00 2 3 mph 1022.3mb 68f 57f
9:54 1 2 mph 1022.3mb 68f 57f
9:48 2 6 mph 1022.3mb 68f 56f
9:42 3 5 mph 1022.3mb 68f 56f
9:36 3 6 mph 1022.3mb 68f 56f
9:30 3 6 mph 1022.3mb 68f 56f
9:24 3 5 mph 1022.2mb 69f 56f
9:18 2 5 mph 1022.1mb 69f 56f
9:12 3 5 mph 1022.1mb 69f 55f
9:06 3 5 mph 1022.2mb 69f 55f
9:00 2 5 mph 1022.2mb 69f 56f
8:54 3 5 mph 1022.2mb 69f 55f
8:48 3 5 mph 1022.2mb 69f 55f
8:42 2 5 mph 1022.1mb 69f 56f
8:36 3 6 mph 1022.1mb 69f 55f
8:30 3 6 mph 1022mb 69f 56f
8:24 1 5 mph 1022mb 69f 55f
8:18 3 5 mph 1022mb 69f 55f
8:12 1 2 mph 1021.9mb 69f 55f
8:06 2 3 mph 1021.9mb 69f 55f
8:00 2 6 mph 1021.8mb 69f 55f
7:54 3 5 mph 1021.8mb 69f 55f
7:48 1 3 mph 1021.8mb 69f 55f
7:42 1 5 mph 1021.7mb 69f 55f
7:36 3 7 mph 1021.6mb 68f 55f
7:30 6 7 mph 1021.6mb 68f 55f
7:24 3 6 mph 1021.5mb 68f 55f
7:18 5 6 mph 1021.5mb 69f 55f
7:12 5 6 mph 1021.5mb 69f 55f
7:06 5 7 mph 1021.4mb 69f 55f
7:00 6 8 mph 1021.4mb 69f 55f
6:54 7 8 mph 1021.3mb 69f 55f
6:48 3 7 mph 1021.2mb 69f 55f
6:42 3 7 mph 1021.2mb 69f 56f
6:36 6 7 mph 1021.2mb 69f 55f
6:30 2 3 mph 1021.3mb 69f 55f
6:24 2 6 mph 1021.2mb 69f 56f
6:18 3 6 mph 1021.1mb 69f 56f
6:12 5 6 mph 1021.1mb 69f 56f
6:06 3 7 mph 1020.9mb 69f 56f
6:00 6 7 mph 1020.9mb 69f 56f
5:54 5 7 mph 1020.8mb 69f 56f
5:48 6 8 mph 1020.7mb 69f 55f
5:42 7 8 mph 1020.7mb 69f 56f
5:36 6 8 mph 1020.6mb 69f 56f
5:30 6 8 mph 1020.6mb 69f 56f
5:24 6 8 mph 1020.5mb 69f 56f
5:18 6 7 mph 1020.5mb 69f 56f
5:12 6 8 mph 1020.5mb 69f 56f
5:06 6 7 mph 1020.5mb 69f 56f
5:00 1 3 mph 1020.4mb 69f 56f
4:54 2 3 mph 1020.5mb 69f 56f
4:48 3 7 mph 1020.5mb 69f 57f
4:42 2 3 mph 1020.5mb 70f 56f
4:36 1 3 mph 1020.5mb 70f 56f
4:30 2 3 mph 1020.6mb 70f 56f
4:24 3 5 mph 1020.6mb 70f 56f
4:18 2 3 mph 1020.6mb 70f 56f
4:12 3 5 mph 1020.6mb 69f 56f
4:06 2 3 mph 1020.6mb 69f 56f
4:00 2 3 mph 1020.6mb 69f 56f
3:54 3
mph
1020.5mb 69f 56f
3:48 1 2 mph 1020.5mb 69f 57f
3:42 2 3 mph 1020.5mb 69f 56f
3:36 2 3 mph 1020.6mb 69f 56f
3:30 3
mph
1020.6mb 69f 56f
3:24 2 3 mph 1020.6mb 69f 56f
3:18 2 3 mph 1020.6mb 70f 57f
3:12 2 5 mph 1020.5mb 70f 56f
3:06 2 3 mph 1020.5mb 70f 56f
3:00  -  2 mph 1020.3mb 69f 56f
2:54 2 3 mph 1020.3mb 69f 56f
2:48 2 3 mph 1020.4mb 69f 56f
2:42 2 5 mph 1020.4mb 69f 56f
2:36 5
mph
1020.4mb 69f 56f
2:30 3 5 mph 1020.4mb 69f 56f
2:24 3
mph
1020.4mb 69f 56f
2:18 2 3 mph 1020.3mb 69f 56f
2:12 3 5 mph 1020.3mb 69f 56f
2:06 2 3 mph 1020.4mb 69f 56f
2:00 3
mph
1020.5mb 70f 56f
1:54 3 7 mph 1020.5mb 70f 57f
1:48 5 6 mph 1020.5mb 70f 57f
1:42 3 5 mph 1020.5mb 70f 57f
1:36 3 6 mph 1020.5mb 70f 56f
1:30 5
mph
1020.5mb 70f 57f
1:24 3
mph
1020.5mb 70f 57f
1:18 2 6 mph 1020.5mb 70f 57f
1:12 5 6 mph 1020.5mb 70f 57f
1:06 1 3 mph 1020.5mb 69f 57f
1:00 2 8 mph 1020.5mb 69f 57f
12:54 7 10 mph 1020.5mb 69f 58f
12:48 8 10 mph 1020.5mb 69f 57f
12:42 9 11 mph 1020.5mb 69f 58f
12:36 9 13 mph 1020.5mb 69f 57f
12:30 10 14 mph 1020.4mb 69f 58f
12:24 10 11 mph 1020.5mb 69f 58f
12:18 9 11 mph 1020.4mb 69f 58f
12:12 6 11 mph 1020.5mb 69f 58f
12:06 9 13 mph 1020.5mb 69f 58f
12:00 9 13 mph 1020.5mb 69f 58f
lun. 08/22 11:54 8 11 mph 1020.5mb 69f 58f
11:48 7 10 mph 1020.5mb 69f -
11:42 6 9 mph 1020.5mb 69f -
11:36 5 8 mph 1020.5mb 69f -
11:30 6 9 mph 1020.5mb 69f 59f
11:24 1 6 mph 1020.4mb 69f 58f
11:18 3 6 mph 1020.4mb 68f 58f
11:12 2 5 mph 1020.4mb 68f 58f
11:06 3 5 mph 1020.4mb 68f 58f
11:00 3 5 mph 1020.3mb 68f 58f
10:54 3 5 mph 1020.3mb 68f 58f
10:48 1 3 mph 1020.3mb - -
10:42 1 2 mph 1020.3mb - -
10:36  -  2 mph 1020.3mb - -
10:30 2 3 mph 1020.3mb 68f 58f
10:24 2 3 mph 1020.3mb 68f 58f
10:18 3 5 mph 1020.3mb 68f 58f
10:12 3 5 mph 1020.2mb 68f 59f
10:06 3 5 mph 1020.2mb 68f 59f
10:00 3 6 mph 1020.3mb 68f 59f
9:54 3 6 mph 1020.3mb 68f 60f
9:48 3 6 mph 1020.3mb 68f 59f
9:42 2 5 mph 1020.4mb 68f 59f
9:36 2 5 mph 1020.4mb 68f 60f
9:30 2 5 mph 1020.4mb 68f 60f
9:24 2 5 mph 1020.3mb 68f 60f
9:18 5 6 mph 1020.2mb 68f 60f
9:12 3 6 mph 1020.2mb 68f 60f
9:06 3 6 mph 1020.1mb 68f 61f
9:00 5 6 mph 1020.1mb 68f 61f
8:54 3 6 mph 1020.2mb 68f 61f
8:48 5 6 mph 1020.1mb 68f 61f
8:42 6 8 mph 1020mb 68f 61f
8:36 6 9 mph 1019.9mb 68f 61f
8:30 6 10 mph 1019.8mb 68f 61f
8:24 8 10 mph 1019.8mb 68f 61f
8:18 8 11 mph 1019.7mb 68f 62f
8:12 7 10 mph 1019.7mb 68f 62f
8:06 6 8 mph 1019.7mb 68f 62f
8:00 7 8 mph 1019.7mb 68f 62f
7:54 6 9 mph 1019.7mb 66f 62f
7:48 7 10 mph 1019.6mb 66f 62f
7:42 7 10 mph 1019.7mb 66f 62f
7:36 7 10 mph 1019.7mb 66f 62f
7:30 9 11 mph 1019.7mb 67f 62f
7:24 9 13 mph 1019.6mb 66f 62f
7:18 10 13 mph - 66f 62f
7:12 9 14 mph - 67f 62f
7:06 9 13 mph - 69f 63f
7:00  -  mph 1019.6mb 69f 63f
6:54  -  mph 1019.6mb 69f 63f
6:48 10 14 mph 1019.6mb 69f 63f
6:42 11 14 mph 1019.5mb 69f 63f
6:36 11 14 mph 1019.5mb 69f 63f
6:30 13 14 mph 1019.5mb 69f 63f
6:24 10 14 mph 1019.6mb 69f 64f
6:18  -  mph 1019.6mb 69f 64f
6:12  -  mph 1019.6mb 69f 63f
6:06  -  mph 1019.5mb 69f 63f
6:00  -  mph 1019.5mb 69f 63f
5:54  -  mph 1019.5mb 69f 63f
5:48 15 17 mph 1019.5mb 69f 63f
5:42 16 20 mph 1019.6mb 69f 62f
5:36 16 18 mph 1019.6mb 69f 62f
5:30 15 18 mph - 69f 62f
5:24 15 18 mph - 69f 62f
5:18 15 17 mph 1019.7mb 69f 62f
5:12 15 17 mph 1019.7mb 69f 62f
5:06 16 18 mph 1019.7mb 69f 62f
5:00 15 18 mph 1019.7mb 69f 62f
4:54 16 18 mph 1019.7mb 69f 62f
4:48  -  mph 1019.8mb 69f -
4:42  -  mph 1019.8mb 69f -
4:36  -  mph 1019.8mb 69f -
4:30 16 17 mph 1019.8mb 70f 62f
4:24 15 17 mph 1019.8mb 70f 62f
4:18  -  mph 1019.9mb 70f 62f
4:12  -  mph 1019.9mb 70f 62f
4:06  -  mph 1020mb 70f 62f
4:00  -  mph 1020mb 70f 62f
3:54  -  mph 1020mb 70f 62f
3:48 13 15 mph - 70f -
3:42 14 15 mph - 70f -
3:36 14 16 mph - 70f -
3:30 14 16 mph - 70f 62f
3:24 14 15 mph - 70f 62f
3:18 11 13 mph - 70f 62f
3:12 9 14 mph - 70f 62f
3:06 8 11 mph - 70f 62f
3:00 10 14 mph 1020.2mb 70f 62f
2:54 9 11 mph 1020.2mb 70f 62f
2:48 9 11 mph - 70f 62f
2:42 8 10 mph - 70f 63f
2:36 8 13 mph - 70f 62f
2:30 9 11 mph 1020.3mb 70f 62f
2:24 10 13 mph 1020.4mb 70f 62f
2:18 8 10 mph 1020.3mb 70f 62f
2:12 8 11 mph 1020.3mb 70f 62f
2:06 8 11 mph 1020.3mb 70f 62f
2:00 8 10 mph 1020.4mb 70f 62f
1:54 7 9 mph 1020.3mb 70f 62f
1:48 5 8 mph 1020.3mb 70f 62f
1:42 2 3 mph 1020.3mb 70f 63f
1:36 2 5 mph 1020.4mb 70f 62f
1:30 5 7 mph 1020.4mb 70f 62f
1:24 3 6 mph 1020.4mb 70f 62f
1:18 6 8 mph 1020.5mb 70f 62f
1:12 6 8 mph 1020.5mb 70f 62f
1:06 7 8 mph 1020.5mb 70f 62f
1:00 6 8 mph 1020.5mb 70f 62f
12:54 3 7 mph 1020.5mb 70f 62f
12:48 5 9 mph 1020.5mb 70f 62f
12:42 6 9 mph 1020.5mb 70f 62f
12:36 6 8 mph 1020.5mb 70f 62f
12:30 5 6 mph 1020.4mb 70f 61f
12:24 6 7 mph 1020.5mb 70f 61f
12:18 6 9 mph 1020.4mb 70f 61f
12:12 5 6 mph 1020.4mb 70f 61f
12:06 5 7 mph 1020.5mb 70f 61f
12:00 7 9 mph 1020.5mb 70f 61f
11:54 6 9 mph 1020.5mb 70f 61f
11:48 8 9 mph 1020.4mb - -
11:42 7 10 mph 1020.4mb - -
11:36 9 11 mph 1020.5mb - -
11:30 9 10 mph 1020.5mb - -
11:24 9 11 mph 1020.5mb - -
11:18 9 14 mph 1020.4mb 70f 60f
11:12 11 15 mph 1020.4mb 70f 60f
11:06 10 14 mph 1020.3mb 69f 60f
11:00 9 11 mph 1020.2mb 69f 60f
10:54 9 13 mph 1020.2mb 69f 60f
10:48 8 10 mph 1020.1mb 69f 60f
10:42 8 9 mph 1020mb 69f 60f
10:36 8 11 mph 1020mb 69f 60f
10:30 9 11 mph 1020mb 69f 60f
10:24 10 13 mph 1019.9mb 69f 60f